This is the latest recevied weather packets stored in our database for station/object OK2ILA-3. If no packets are shown the sender has not sent any weather packets the latest 10 day(s).
| Time | Temp. | Humidity | Pressure | Rain* | Wind** | Luminosity | Snow |
|---|---|---|---|---|---|---|---|
| 1777955043 | 13.33° C | 12% | 179.2 hPa | 0 mm | - | - | - |
| 1777954441 | 13.33° C | 100% | 179.2 hPa | 0 mm | - | - | - |
| 1777953834 | 13.33° C | 60% | 179.2 hPa | 0 mm | - | - | - |
| 1777953231 | 13.33° C | 100% | 179.2 hPa | 0 mm | - | - | - |
| 1777952628 | 12.78° C | 100% | 179.2 hPa | 0 mm | - | - | - |
| 1777952026 | 12.22° C | 98% | 179.2 hPa | 0 mm | - | - | - |
| 1777951423 | 11.67° C | 12% | 179.2 hPa | 0 mm | - | - | - |
| 1777950821 | 11.67° C | 100% | 179.2 hPa | 0 mm | - | - | - |
| 1777950218 | 11.11° C | 2% | 52.4 hPa | 0 mm | - | - | - |
| 1777949615 | 11.11° C | 3% | 12.1 hPa | 0 mm | - | - | - |
| 1777949013 | 11.11° C | 3% | 12.1 hPa | 0 mm | - | - | - |
| 1777948411 | 11.67° C | 5% | 12.1 hPa | 0 mm | - | - | - |
| 1777947809 | 11.67° C | 53% | 12.1 hPa | 0 mm | - | - | - |
| 1777947206 | 12.22° C | 5% | 375.4 hPa | 0 mm | - | - | - |
| 1777946602 | 12.22° C | 100% | 375.4 hPa | 0 mm | - | - | - |
| 1777945993 | 12.22° C | 52% | 4352 hPa | 0 mm | - | - | - |
| 1777945388 | 12.22° C | 100% | 4352 hPa | 0 mm | - | - | - |
| 1777944784 | 12.78° C | 3% | 327.4 hPa | 0 mm | - | - | - |
| 1777944176 | 12.78° C | 55% | 13 hPa | 0 mm | - | - | - |
| 1777943572 | 12.22° C | 19% | 13 hPa | 0 mm | - | - | - |
| 1777942970 | 12.22° C | 13% | 13 hPa | 0 mm | - | - | - |
| 1777942363 | 12.78° C | 2% | 13 hPa | 0 mm | - | - | - |
| 1777941757 | 12.78° C | 2% | 13 hPa | 0 mm | - | - | - |
| 1777941155 | 12.78° C | 37% | 13 hPa | 0 mm | - | - | - |
| 1777940544 | 12.78° C | 54% | 0 hPa | 0 mm | - | - | - |
* Rain latest 24 hours (hover to see other rain measurements)
** Current wind speed in m/s (hover to see current wind gust speed)